Showing default

LYNK TOWER 3, 55046

Orbit data source: Space-Track

LYNK TOWER 3, 55046 is a payload satellite owned by Lynk (US) in SSO that was launched on Tue, 03 Jan 2023 UTC via an FALCON 9 launch vehicle from the Air Force Eastern Test Range (AFETR). Payload-class satellites include a variety of spacecraft equipped with specific instruments for various scientific and technological missions. These include communications satellites like Starlink; space stations such as the ISS; scientific satellites like the Hubble; Earth observation satellites from companies like Planet Labs, Umbra, and HawkEye 360; GPS; miniature CubeSats for education and research; and military/defense satellites.

Loading next visibility...
Identifier
55046, 2023-001AP
Orbit
SSO
Country
Flag of USUS
Related business
Manufacturer
Lynk
Mission
Operational Commercial Communications
Bus & Motor
LYNK SHANNON, Unknown motor
Mass
~80 kg wet, ~80 kg dry
Launch date (UTC)
2023-01-03 (3 years ago)
Launch vehicle
FALCON 9
Launch site
Air Force Eastern Test Range (AFETR)
Object type
Payload
Rocket body
Debris
Shape & HBR
Box, 0.5 m
Radar Cross Section
0.650 m², Medium (>0.1 m² and < 1m²)

Expand to show TLE details & history
Last TLE update: 10 hours ago

TLE from 10 hours ago
0 LYNK TOWER 3
1 55046U 23001AP  25262.10984752  .00009595  00000-0  34497-3 0  9997
2 55046  97.3640 319.4519 0009328  17.0952 343.0600 15.28797967150383
Epoch: 2025-09-19T02:38Z
TLE epoch observation values (Epoch: 2025-09-19T02:38:10.825Z)
Latitude
-0.00008°
Longitude
-78.355°
Altitude
476.388 km
Speed
7.631 km/s
True Right ascension
21h 17m 48s
True Declination
0° 00' 00"
Sunlit
Object was in full shadow at epoch
Visualization orbit readout
Latitude
Unknown
Longitude
Unknown
Altitude
Unknown
Speed
Unknown
Apparent Right ascension
Unknown
Apparent Declination
Unknown
Sunlit
N/A
Visualization observer readout
Local Sidereal Time
05:27:17
Azimuth
Unknown
Elevation
Unknown
Doppler factor
Unknown
Orbital elements
Apogee altitude
482.751 km
Perigee altitude
469.963 km
Semi-major axis
6,854.494 km
Eccentricity
0.00093
Inclination
97.364°
RAAN
319.4519°
Arg. of periapsis
17.0952°
True anomaly
343.02882°
Mean anomaly
343.06°
Eccentric anomaly
343.04441°
Mean motion
3.82455 °/min
Orbital period
94.13 mins
BSTAR
0.00034497
Loading maneuver chart data...
Computing Atmospheric mass density...
Loading historical data...
Loading historical data...
Loading historical data...
Loading historical data...
Loading historical data...
Loading historical data...
Loading historical data...

Documentation

Showing up to 5 results
|